RYR734 LPPD-LPHR

Flight info

Callsign RYR734
Flight time 0h 39m
Altitude 20000
Route TIMTO H115 SOLGI
Aircraft B38M/M-SDE1FGHILORVWXY/HB1

Departure

Time 2026-04-21 20:20
Airport João Paulo II Airport (LPPD)

Arrival

Time 2026-04-21 21:00
Airport Horta Airport (LPHR)
Time Latitude Longitude Altitude Speed Heading
2026-04-21 19:59 37.74888 -25.71175 272 ft 0 kts 22°
2026-04-21 20:15 37.74889 -25.71172 272 ft 1 kts 56°
2026-04-21 20:15 37.74876 -25.71172 272 ft 6 kts 201°
2026-04-21 20:15 37.74823 -25.71147 272 ft 14 kts 137°
2026-04-21 20:15 37.74767 -25.70996 272 ft 23 kts 112°
2026-04-21 20:16 37.74704 -25.70803 272 ft 25 kts 112°
2026-04-21 20:16 37.74637 -25.70594 271 ft 27 kts 112°
2026-04-21 20:16 37.74528 -25.70403 271 ft 28 kts 147°
2026-04-21 20:16 37.74378 -25.70239 271 ft 29 kts 134°
2026-04-21 20:17 37.74277 -25.70009 270 ft 31 kts 111°
2026-04-21 20:17 37.74190 -25.69736 268 ft 35 kts 111°
2026-04-21 20:17 37.74097 -25.69444 267 ft 37 kts 113°
2026-04-21 20:17 37.74003 -25.69145 266 ft 38 kts 112°
2026-04-21 20:18 37.73902 -25.68827 262 ft 40 kts 110°
2026-04-21 20:18 37.73815 -25.68589 259 ft 19 kts 141°
2026-04-21 20:18 37.73739 -25.68494 259 ft 11 kts 86°
2026-04-21 20:18 37.73758 -25.68454 259 ft 3 kts 35°
2026-04-21 20:19 37.73775 -25.68453 259 ft 3 kts 353°
2026-04-21 20:19 37.73792 -25.68459 259 ft 1 kts 315°
2026-04-21 20:19 37.73794 -25.68469 259 ft 3 kts 284°
2026-04-21 20:19 37.73807 -25.68528 259 ft 11 kts 291°
2026-04-21 20:20 37.73875 -25.68743 261 ft 60 kts 291°
2026-04-21 20:20 37.74128 -25.69539 267 ft 133 kts 292°
2026-04-21 20:20 37.74586 -25.70818 472 ft 181 kts 294°
2026-04-21 20:20 37.75175 -25.72254 958 ft 182 kts 294°
2026-04-21 20:21 37.75774 -25.73754 745 ft 209 kts 295°
2026-04-21 20:21 37.76419 -25.75183 2160 ft 147 kts 295°
2026-04-21 20:21 37.76733 -25.76290 3699 ft 133 kts 281°
2026-04-21 20:21 37.77178 -25.77403 4265 ft 159 kts 304°
2026-04-21 20:22 37.78021 -25.78442 4870 ft 179 kts 309°
2026-04-21 20:22 37.79989 -25.80878 6109 ft 217 kts 308°
2026-04-21 20:22 37.81090 -25.82289 6776 ft 233 kts 308°
2026-04-21 20:23 37.82249 -25.83784 7592 ft 242 kts 308°
2026-04-21 20:23 37.83433 -25.85309 8599 ft 245 kts 308°
2026-04-21 20:23 37.84639 -25.86853 9586 ft 248 kts 308°
2026-04-21 20:23 37.85869 -25.88421 10407 ft 256 kts 308°
2026-04-21 20:24 37.87144 -25.90060 10884 ft 274 kts 308°
2026-04-21 20:24 37.88292 -25.92013 11405 ft 280 kts 289°
2026-04-21 20:24 37.89003 -25.94350 12080 ft 291 kts 289°
2026-04-21 20:24 37.89824 -25.96736 12869 ft 300 kts 291°
2026-04-21 20:25 37.90686 -25.99160 13706 ft 304 kts 291°
2026-04-21 20:25 37.91569 -26.01607 14446 ft 307 kts 291°
2026-04-21 20:25 37.92470 -26.04073 15183 ft 310 kts 291°
2026-04-21 20:25 37.93383 -26.06561 15896 ft 313 kts 291°
2026-04-21 20:26 37.94293 -26.09036 16579 ft 316 kts 292°
2026-04-21 20:26 37.95225 -26.11566 17279 ft 318 kts 292°
2026-04-21 20:26 37.96165 -26.14118 17959 ft 321 kts 292°
2026-04-21 20:26 37.97113 -26.16695 18527 ft 324 kts 292°
2026-04-21 20:27 37.98069 -26.19295 19101 ft 327 kts 291°
2026-04-21 20:27 37.99035 -26.21926 19533 ft 332 kts 291°
2026-04-21 20:27 38.00003 -26.24560 19673 ft 329 kts 291°
2026-04-21 20:27 38.00964 -26.27181 19699 ft 327 kts 291°
2026-04-21 20:28 38.01923 -26.29798 19699 ft 327 kts 291°
2026-04-21 20:28 38.02881 -26.32414 19699 ft 327 kts 291°
2026-04-21 20:28 38.03824 -26.34991 19698 ft 327 kts 291°
2026-04-21 20:28 38.04780 -26.37608 19696 ft 327 kts 291°
2026-04-21 20:29 38.05734 -26.40219 19693 ft 327 kts 291°
2026-04-21 20:29 38.06688 -26.42834 19697 ft 326 kts 291°
2026-04-21 20:29 38.07639 -26.45443 19695 ft 326 kts 291°
2026-04-21 20:29 38.08594 -26.48064 19697 ft 326 kts 291°
2026-04-21 20:30 38.09544 -26.50676 19694 ft 326 kts 291°
2026-04-21 20:30 38.10496 -26.53292 19696 ft 326 kts 291°
2026-04-21 20:30 38.11432 -26.55869 19693 ft 326 kts 291°
2026-04-21 20:30 38.12379 -26.58479 19698 ft 325 kts 291°
2026-04-21 20:31 38.13327 -26.61092 19696 ft 325 kts 291°
2026-04-21 20:31 38.14271 -26.63699 19696 ft 325 kts 291°
2026-04-21 20:31 38.15217 -26.66312 19693 ft 325 kts 291°
2026-04-21 20:31 38.16161 -26.68921 19684 ft 325 kts 291°
2026-04-21 20:32 38.17104 -26.71530 19691 ft 325 kts 291°
2026-04-21 20:32 38.18045 -26.74137 19690 ft 325 kts 291°
2026-04-21 20:32 38.18986 -26.76746 19693 ft 324 kts 291°
2026-04-21 20:32 38.19914 -26.79320 19689 ft 324 kts 291°
2026-04-21 20:33 38.20853 -26.81926 19690 ft 324 kts 291°
2026-04-21 20:33 38.21791 -26.84532 19697 ft 324 kts 291°
2026-04-21 20:33 38.22728 -26.87141 19696 ft 324 kts 291°
2026-04-21 20:33 38.23664 -26.89745 19691 ft 324 kts 291°
2026-04-21 20:34 38.24600 -26.92353 19692 ft 324 kts 291°
2026-04-21 20:34 38.25534 -26.94959 19685 ft 324 kts 291°
2026-04-21 20:34 38.26467 -26.97563 19681 ft 324 kts 291°
2026-04-21 20:34 38.27400 -27.00167 19685 ft 323 kts 291°
2026-04-21 20:35 38.28318 -27.02736 19692 ft 323 kts 291°
2026-04-21 20:35 38.29249 -27.05341 19694 ft 323 kts 291°
2026-04-21 20:35 38.30178 -27.07943 19684 ft 323 kts 291°
2026-04-21 20:35 38.31107 -27.10547 19692 ft 323 kts 291°
2026-04-21 20:36 38.32034 -27.13148 19679 ft 323 kts 291°
2026-04-21 20:36 38.32960 -27.15750 19690 ft 322 kts 291°
2026-04-21 20:36 38.33886 -27.18352 19684 ft 322 kts 290°
2026-04-21 20:36 38.34809 -27.20948 19694 ft 322 kts 290°
2026-04-21 20:37 38.35734 -27.23552 19694 ft 322 kts 290°
2026-04-21 20:37 38.36644 -27.26117 19678 ft 321 kts 290°
2026-04-21 20:37 38.37539 -27.28640 19702 ft 305 kts 290°
2026-04-21 20:37 38.38390 -27.31042 19714 ft 290 kts 290°
2026-04-21 20:38 38.39180 -27.33364 19516 ft 281 kts 289°
2026-04-21 20:38 38.39947 -27.35646 19193 ft 279 kts 289°
2026-04-21 20:38 38.40707 -27.37902 18876 ft 276 kts 289°
2026-04-21 20:38 38.41460 -27.40139 18550 ft 273 kts 289°
2026-04-21 20:39 38.42206 -27.42357 18221 ft 271 kts 289°
2026-04-21 20:39 38.42947 -27.44558 17879 ft 270 kts 289°
2026-04-21 20:39 38.43675 -27.46725 17517 ft 270 kts 289°
2026-04-21 20:39 38.44414 -27.48925 17165 ft 269 kts 289°
2026-04-21 20:40 38.45148 -27.51111 16829 ft 266 kts 289°
2026-04-21 20:40 38.45871 -27.53268 16505 ft 263 kts 289°
2026-04-21 20:40 38.46585 -27.55397 16190 ft 259 kts 289°
2026-04-21 20:40 38.47288 -27.57496 15878 ft 257 kts 289°
2026-04-21 20:41 38.47987 -27.59587 15560 ft 255 kts 289°
2026-04-21 20:41 38.48673 -27.61637 15257 ft 254 kts 289°
2026-04-21 20:41 38.49364 -27.63706 14947 ft 252 kts 289°
2026-04-21 20:41 38.50049 -27.65757 14662 ft 251 kts 289°
2026-04-21 20:42 38.50733 -27.67804 14347 ft 251 kts 289°
2026-04-21 20:42 38.51407 -27.69825 14031 ft 243 kts 289°
2026-04-21 20:42 38.52059 -27.71783 13756 ft 236 kts 289°
2026-04-21 20:42 38.52701 -27.73709 13476 ft 236 kts 289°
2026-04-21 20:43 38.53345 -27.75648 13149 ft 236 kts 289°
2026-04-21 20:43 38.53978 -27.77551 12834 ft 230 kts 289°
2026-04-21 20:43 38.54587 -27.79380 12536 ft 223 kts 289°
2026-04-21 20:43 38.55180 -27.81166 12262 ft 213 kts 289°
2026-04-21 20:44 38.55752 -27.82890 12004 ft 209 kts 289°
2026-04-21 20:44 38.56319 -27.84595 11779 ft 208 kts 289°
2026-04-21 20:44 38.56881 -27.86290 11526 ft 207 kts 289°
2026-04-21 20:44 38.57443 -27.87989 11279 ft 208 kts 289°
2026-04-21 20:45 38.58006 -27.89689 11050 ft 208 kts 289°
2026-04-21 20:45 38.58571 -27.91397 10788 ft 209 kts 289°
2026-04-21 20:45 38.59129 -27.93084 10543 ft 209 kts 288°
2026-04-21 20:45 38.59696 -27.94797 10268 ft 209 kts 289°
2026-04-21 20:46 38.60252 -27.96481 10135 ft 204 kts 289°
2026-04-21 20:46 38.60804 -27.98153 10021 ft 204 kts 289°
2026-04-21 20:46 38.61353 -27.99818 9903 ft 203 kts 289°
2026-04-21 20:46 38.61902 -28.01482 9792 ft 203 kts 289°
2026-04-21 20:47 38.62451 -28.03145 9578 ft 203 kts 289°
2026-04-21 20:47 38.63000 -28.04816 9311 ft 204 kts 289°
2026-04-21 20:47 38.63546 -28.06475 9045 ft 205 kts 289°
2026-04-21 20:47 38.64099 -28.08155 8822 ft 205 kts 290°
2026-04-21 20:48 38.64650 -28.09838 8557 ft 205 kts 289°
2026-04-21 20:48 38.65203 -28.11522 8334 ft 206 kts 290°
2026-04-21 20:48 38.65757 -28.13209 8081 ft 206 kts 290°
2026-04-21 20:48 38.66308 -28.14890 7822 ft 204 kts 290°
2026-04-21 20:49 38.66856 -28.16562 7593 ft 204 kts 290°
2026-04-21 20:49 38.67405 -28.18237 7347 ft 204 kts 290°
2026-04-21 20:49 38.67953 -28.19914 7170 ft 205 kts 290°
2026-04-21 20:49 38.68502 -28.21595 6879 ft 209 kts 291°
2026-04-21 20:50 38.69060 -28.23302 6604 ft 207 kts 291°
2026-04-21 20:50 38.69613 -28.24992 6356 ft 204 kts 291°
2026-04-21 20:50 38.69920 -28.26740 6052 ft 204 kts 268°
2026-04-21 20:50 38.69461 -28.28452 5778 ft 207 kts 245°
2026-04-21 20:51 38.68719 -28.30007 5520 ft 203 kts 245°
2026-04-21 20:51 38.67990 -28.31523 5328 ft 196 kts 245°
2026-04-21 20:51 38.67294 -28.32956 5169 ft 183 kts 245°
2026-04-21 20:51 38.66649 -28.34277 5078 ft 175 kts 246°
2026-04-21 20:52 38.66005 -28.35583 5064 ft 172 kts 245°
2026-04-21 20:52 38.65346 -28.36831 4984 ft 167 kts 244°
2026-04-21 20:52 38.64699 -28.38048 4877 ft 165 kts 245°
2026-04-21 20:52 38.64059 -28.39252 4696 ft 162 kts 245°
2026-04-21 20:53 38.63444 -28.40402 4472 ft 152 kts 245°
2026-04-21 20:53 38.62856 -28.41509 4303 ft 149 kts 245°
2026-04-21 20:53 38.62269 -28.42613 4132 ft 151 kts 245°
2026-04-21 20:53 38.61676 -28.43726 3960 ft 152 kts 245°
2026-04-21 20:54 38.61086 -28.44833 3881 ft 153 kts 244°
2026-04-21 20:54 38.60491 -28.45951 3820 ft 151 kts 245°
2026-04-21 20:54 38.59900 -28.47061 3706 ft 151 kts 245°
2026-04-21 20:54 38.59332 -28.48120 3599 ft 139 kts 246°
2026-04-21 20:55 38.58799 -28.49121 3444 ft 134 kts 246°
2026-04-21 20:55 38.58274 -28.50105 3326 ft 134 kts 246°
2026-04-21 20:55 38.57746 -28.51094 3248 ft 135 kts 246°
2026-04-21 20:55 38.57216 -28.52089 3161 ft 136 kts 246°
2026-04-21 20:56 38.56685 -28.53084 2976 ft 136 kts 245°
2026-04-21 20:56 38.56160 -28.54065 2765 ft 135 kts 246°
2026-04-21 20:56 38.55632 -28.55055 2571 ft 135 kts 246°
2026-04-21 20:56 38.55100 -28.56051 2471 ft 136 kts 246°
2026-04-21 20:57 38.54569 -28.57044 2371 ft 135 kts 245°
2026-04-21 20:57 38.54040 -28.58033 2228 ft 135 kts 246°
2026-04-21 20:57 38.53509 -28.59026 2088 ft 136 kts 246°
2026-04-21 20:57 38.52973 -28.60028 1830 ft 137 kts 245°
2026-04-21 20:58 38.52439 -28.61029 1550 ft 136 kts 244°
2026-04-21 20:58 38.52139 -28.62095 1361 ft 126 kts 269°
2026-04-21 20:58 38.52060 -28.63218 1241 ft 127 kts 273°
2026-04-21 20:58 38.52025 -28.64344 1009 ft 127 kts 275°
2026-04-21 20:59 38.52014 -28.65462 948 ft 125 kts 276°
2026-04-21 20:59 38.52008 -28.66578 944 ft 127 kts 276°
2026-04-21 20:59 38.52005 -28.67710 931 ft 127 kts 274°
2026-04-21 20:59 38.51969 -28.68839 559 ft 128 kts 271°
2026-04-21 21:00 38.51949 -28.69987 327 ft 130 kts 282°
2026-04-21 21:00 38.51996 -28.71133 118 ft 127 kts 270°
2026-04-21 21:00 38.51992 -28.71871 109 ft 46 kts 269°
2026-04-21 21:00 38.51990 -28.72233 98 ft 37 kts 270°
2026-04-21 21:01 38.52001 -28.72439 94 ft 18 kts 294°
2026-04-21 21:01 38.52027 -28.72520 93 ft 0 kts 253°
2026-04-21 21:01 38.52001 -28.72519 94 ft 9 kts 135°
2026-04-21 21:01 38.51989 -28.72415 94 ft 13 kts 91°
2026-04-21 21:02 38.51990 -28.72311 97 ft 10 kts 89°
2026-04-21 21:02 38.51990 -28.72240 98 ft 6 kts 90°
2026-04-21 21:02 38.51989 -28.72175 101 ft 13 kts 91°
2026-04-21 21:02 38.51988 -28.72038 106 ft 15 kts 90°
2026-04-21 21:03 38.51988 -28.71913 109 ft 13 kts 90°
2026-04-21 21:03 38.51988 -28.71807 110 ft 11 kts 90°
2026-04-21 21:03 38.51988 -28.71728 112 ft 7 kts 90°
2026-04-21 21:03 38.51990 -28.71675 112 ft 8 kts 74°
2026-04-21 21:04 38.52030 -28.71639 114 ft 7 kts
2026-04-21 21:04 38.52089 -28.71636 108 ft 10 kts
2026-04-21 21:04 38.52111 -28.71591 109 ft 5 kts 89°
2026-04-21 21:04 38.52112 -28.71551 111 ft 4 kts 89°
2026-04-21 21:05 38.52111 -28.71524 112 ft 0 kts 102°
2026-04-21 21:05 38.52109 -28.71517 110 ft 1 kts 112°
2026-04-21 21:05 38.52105 -28.71515 111 ft 1 kts 159°
2026-04-21 21:05 38.52097 -28.71516 111 ft 0 kts 189°